Find Starlink 37945

NORAD ID: 69669 Int'l Des: 2026-143 Owner: SPXS Country: US Constellation: starlink operational
LEOCIRCULARRETROGRADE

当前视图

正在加载3D地球...

About Starlink 37945

Starlink 37945 (NORAD 69669) is a starlink constellation satellite (v2 mini) launched Jun 21, 2026 by SPXS of US. It operates in LEO, CIRCULAR, RETROGRADE orbit with a mass of 575.00 kg.

即将过境

Passes for default location (London). Set your location on the main map for personalized predictions.

高度历史

Loading altitude history...

两行轨道根数

1 69669U 26143W 26238.57416376 .00013106 00000-0 40750-3 0 9992
2 69669 97.2812 282.1356 0000691 128.5234 231.6071 15.33451590 11328
Epoch: Aug 26, 2026 • Age: 5 hours

当前状态

高度 476.0 km
远地点 / 近地点 N/A
速度 7.63 km/s
星下点 63.42°N, 142.69°W
发射日期 Jun 21, 2026
运行时间 0.1 years
类型 internet

技术详情

分类 Payload
质量 575.00 kg
干质量 530.00 kg
总质量 575.00 kg
长度 0.30 m
直径 4.10 m
跨度 29.00 m
形状 Box + pan
制造商 SPXS
平台类型 Starlink V2MO
阶段状态 In Orbit
所有者/国家 SPXS/US

Most Searched